Simultaneous Nadir Overpasses (SNOs) Predictions

Prediction of SNOs between LANDSAT-8 and METOP-B Satellite Orbit:

Table of predicted SNOs for the next 14.0 days since TLE Epoch: 8/26/2017
Index Date (LANDSAT-8) Time (LANDSAT-8) Lat,Lon (LANDSAT-8) SZA (LANDSAT-8 ) Date (METOP-B) Time (METOP-B) Lat,Lon (METOP-B) SZA (METOP-B ) Distance(km) Time Diff (sec)
1 08/28/2017 11:38:40 81.20, 46.59 73.84 08/28/2017 11:37:42 81.20, 46.50 73.80 1.74 58
2 08/28/2017 12:28:05 -81.22,-145.45 106.11 08/28/2017 12:28:20 -81.22,-145.31 106.08 2.32 15
3 08/31/2017 07:12:55 81.19, 112.89 74.84 08/31/2017 07:12:01 81.19, 112.85 74.82 0.61 54
4 08/31/2017 08:02:21 -81.21, -79.13 105.10 08/31/2017 08:02:41 -81.21, -79.31 105.11 3.19 20
5 09/03/2017 02:47:10 81.21, 179.52 75.91 09/03/2017 02:46:20 81.20, 179.57 75.90 0.82 50
6 09/03/2017 03:36:37 -81.21, -12.84 104.08 09/03/2017 03:37:01 -81.21, -12.95 104.08 1.91 24
7 09/05/2017 22:21:26 81.19,-114.24 76.94 09/05/2017 22:20:40 81.20,-114.11 76.94 2.35 46
8 09/05/2017 23:10:52 -81.22, 53.79 102.99 09/05/2017 23:11:20 -81.22, 53.78 102.98 0.27 28
9 09/08/2017 17:55:40 81.20, -47.66 78.04 09/08/2017 17:54:59 81.20, -47.81 78.00 2.49 41




NCC Satellite Simultaneous Nadir Overpasses (SNOs) Prediction Service
